GW3421 Weather Reports


time (UTC)temp
C
wind
direction
speed
KPH
gust
KPH
rain 1hr
cm
rain 24hr
cm
rain mn
cm
humidity
%
barometer
mb
20260504035549 6 174 0.0 1.6 0.00 0.00 0.00 85 1017.8
20260504035045 7 183 3.2 3.2 0.00 0.00 0.00 85 1017.5
20260504034544 7 154 1.6 3.2 0.00 0.00 0.00 81 1017.4
20260504034035 8 166 4.8 8.0 0.00 0.00 0.00 76 1017.5
20260504033533 7 147 1.6 1.6 0.00 0.00 0.00 75 1017.4
20260504033030 7 172 1.6 1.6 0.00 0.00 0.00 79 1017.5
20260504032527 6 185 0.0 1.6 0.00 0.00 0.00 82 1017.6
20260504032024 7 161 0.0 1.6 0.00 0.00 0.00 86 1017.5
20260504031521 7 168 1.6 1.6 0.00 0.00 0.00 79 1017.8
20260504031017 8 187 4.8 8.0 0.00 0.00 0.00 76 1017.6
20260504030515 7 160 1.6 1.6 0.00 0.00 0.00 79 1017.5
20260504030010 7 188 4.8 8.0 0.00 0.00 0.00 80 1017.6
20260504025508 7 153 1.6 3.2 0.00 0.00 0.00 84 1017.6
20260504025005 7 178 4.8 4.8 0.00 0.00 0.00 84 1017.6
20260504024502 7 164 3.2 3.2 0.00 0.00 0.00 82 1017.8
20260504023959 7 161 1.6 3.2 0.00 0.00 0.00 82 1017.8
20260504023455 8 165 3.2 3.2 0.00 0.00 0.00 81 1017.6
20260504022950 8 161 0.0 1.6 0.00 0.00 0.00 80 1017.8
20260504022447 8 156 3.2 3.2 0.00 0.00 0.00 80 1017.5
20260504021944 8 134 1.6 1.6 0.00 0.00 0.00 78 1017.5
20260504021441 8 143 1.6 3.2 0.00 0.00 0.00 78 1017.6
20260504020938 8 155 1.6 1.6 0.00 0.00 0.00 76 1017.3
20260504020434 8 159 1.6 1.6 0.00 0.00 0.00 75 1017.3
20260504015931 8 157 1.6 1.6 0.00 0.00 0.00 73 1017.4
20260504015427 9 160 1.6 3.2 0.00 0.00 0.00 74 1017.4
20260504014923 10 166 3.2 3.2 0.00 0.00 0.00 73 1017.0
20260504014420 10 161 0.0 1.6 0.00 0.00 0.00 68 1017.1
20260504013916 10 162 0.0 1.6 0.00 0.00 0.00 67 1017.2
20260504013415 11 164 0.0 1.6 0.00 0.00 0.00 63 1017.2
20260504012911 11 150 0.0 0.0 0.00 0.00 0.00 55 1016.9
20260504012409 11 150 0.0 0.0 0.00 0.00 0.00 58 1017.2
20260504011906 11 135 1.6 1.6 0.00 0.00 0.00 60 1017.0
20260504011403 12 136 1.6 1.6 0.00 0.00 0.00 59 1016.9
20260504010859 12 155 3.2 3.2 0.00 0.00 0.00 58 1016.9
20260504010355 12 134 1.6 1.6 0.00 0.00 0.00 55 1016.9
20260504005851 13 148 1.6 1.6 0.00 0.00 0.00 55 1016.4
20260504005348 13 208 0.0 1.6 0.00 0.00 0.00 52 1016.5
20260504004845 13 311 3.2 3.2 0.00 0.00 0.00 47 1016.5
20260504004343 13 167 0.0 1.6 0.00 0.00 0.00 47 1016.5
20260504003839 13 287 1.6 3.2 0.00 0.00 0.00 47 1016.3
20260504003336 14 221 3.2 3.2 0.00 0.00 0.00 48 1016.5
20260504002833 14 286 3.2 4.8 0.00 0.00 0.00 47 1016.3
20260504002330 14 315 3.2 3.2 0.00 0.00 0.00 47 1016.3
20260504001828 15 306 1.6 1.6 0.00 0.00 0.00 46 1016.2
20260504001325 15 293 3.2 3.2 0.00 0.00 0.00 48 1016.3
20260504000821 15 297 1.6 1.6 0.00 0.00 0.00 45 1016.0
20260504000318 16 306 8.0 9.7 0.00 0.00 0.00 43 1016.0
20260503235816 16 310 6.4 8.0 0.00 0.00 0.00 43 1016.3
20260503235313 16 38 4.8 4.8 0.00 0.00 0.00 42 1016.3
20260503234810 17 77 1.6 3.2 0.00 0.00 0.00 44 1015.9
20260503234303 17 33 6.4 9.7 0.00 0.00 0.00 41 1016.2
20260503233800 17 13 3.2 3.2 0.00 0.00 0.00 42 1015.8
20260503233255 17 6 0.0 1.6 0.00 0.00 0.00 43 1015.9
20260503232753 17 351 1.6 3.2 0.00 0.00 0.00 42 1015.8
20260503232250 18 17 1.6 1.6 0.00 0.00 0.00 41 1015.8
20260503231748 18 294 0.0 1.6 0.00 0.00 0.00 44 1015.8
20260503231245 18 2 1.6 3.2 0.00 0.00 0.00 42 1016.0
20260503230740 18 238 4.8 8.0 0.00 0.00 0.00 38 1016.0
20260503230237 18 304 3.2 4.8 0.00 0.00 0.00 41 1015.7
20260503225730 18 7 3.2 3.2 0.00 0.00 0.00 39 1015.9
20260503225229 19 29 4.8 4.8 0.00 0.00 0.00 36 1016.0
20260503224727 20 17 6.4 9.7 0.00 0.00 0.00 36 1015.7
20260503224224 19 328 1.6 3.2 0.00 0.00 0.00 40 1015.6
20260503223722 20 308 1.6 1.6 0.00 0.00 0.00 40 1015.7
20260503223219 18 286 1.6 1.6 0.00 0.00 0.00 39 1015.5
20260503222716 20 38 4.8 4.8 0.00 0.00 0.00 36 1015.7
20260503222214 19 338 4.8 8.0 0.00 0.00 0.00 36 1015.7
20260503221712 20 31 3.2 4.8 0.00 0.00 0.00 36 1015.7
20260503221209 19 305 4.8 4.8 0.00 0.00 0.00 37 1015.4
20260503220705 20 12 1.6 3.2 0.00 0.00 0.00 38 1015.7
20260503220202 20 306 3.2 4.8 0.00 0.00 0.00 39 1015.7
20260503215659 20 303 3.2 4.8 0.00 0.00 0.00 35 1015.8
20260503215156 20 308 3.2 3.2 0.00 0.00 0.00 41 1015.6
20260503214654 20 357 9.7 11.3 0.00 0.00 0.00 37 1015.6
20260503214149 20 149 6.4 11.3 0.00 0.00 0.00 34 1015.6
20260503213644 20 306 1.6 1.6 0.00 0.00 0.00 35 1015.7
20260503213140 20 49 1.6 1.6 0.00 0.00 0.00 39 1016.0
20260503212637 21 284 3.2 4.8 0.00 0.00 0.00 38 1015.9
20260503212135 20 354 1.6 1.6 0.00 0.00 0.00 38 1015.8
20260503211632 20 104 0.0 0.0 0.00 0.00 0.00 46 1016.0
20260503211127 19 84 3.2 4.8 0.00 0.00 0.00 36 1015.8
20260503210624 20 60 6.4 9.7 0.00 0.00 0.00 39 1016.0
20260503210121 20 331 0.0 1.6 0.00 0.00 0.00 40 1016.2
20260503205616 20 262 1.6 1.6 0.00 0.00 0.00 38 1016.0
20260503205113 20 277 0.0 0.0 0.00 0.00 0.00 34 1016.3
20260503204610 20 220 3.2 3.2 0.00 0.00 0.00 35 1016.4
20260503204108 20 288 6.4 8.0 0.00 0.00 0.00 37 1016.3
20260503203604 20 267 1.6 3.2 0.00 0.00 0.00 38 1016.3
20260503203102 20 305 3.2 4.8 0.00 0.00 0.00 43 1016.5
20260503202559 19 55 6.4 9.7 0.00 0.00 0.00 38 1016.4
20260503202057 20 92 0.0 1.6 0.00 0.00 0.00 39 1016.5
20260503201555 20 52 1.6 1.6 0.00 0.00 0.00 34 1016.8
20260503201051 19 291 3.2 4.8 0.00 0.00 0.00 38 1016.7
20260503200547 18 45 3.2 4.8 0.00 0.00 0.00 41 1017.0
20260503200044 19 285 1.6 3.2 0.00 0.00 0.00 37 1017.2
20260503195541 18 281 4.8 4.8 0.00 0.00 0.00 38 1017.0
20260503195038 18 286 3.2 4.8 0.00 0.00 0.00 46 1016.9
20260503194536 19 21 4.8 8.0 0.00 0.00 0.00 36 1017.1
20260503194035 19 311 4.8 4.8 0.00 0.00 0.00 37 1017.4
20260503193532 17 239 0.0 1.6 0.00 0.00 0.00 40 1017.2
20260503193027 18 5 3.2 3.2 0.00 0.00 0.00 36 1017.3
20260503192523 20 16 4.8 4.8 0.00 0.00 0.00 40 1017.2
20260503192019 20 260 1.6 3.2 0.00 0.00 0.00 45 1017.4
20260503191516 18 320 4.8 4.8 0.00 0.00 0.00 37 1017.5
20260503191013 19 291 4.8 4.8 0.00 0.00 0.00 41 1017.6
20260503190510 18 269 3.2 4.8 0.00 0.00 0.00 43 1017.9
20260503190008 18 344 4.8 9.7 0.00 0.00 0.00 37 1017.9
20260503185503 18 67 1.6 1.6 0.00 0.00 0.00 41 1017.8
20260503184958 17 86 0.0 1.6 0.00 0.00 0.00 40 1017.8
20260503184455 17 338 4.8 8.0 0.00 0.00 0.00 38 1018.1
20260503183951 18 104 1.6 3.2 0.00 0.00 0.00 37 1017.9
20260503183448 18 15 3.2 3.2 0.00 0.00 0.00 41 1018.1
20260503182944 17 89 0.0 1.6 0.00 0.00 0.00 43 1018.0
20260503182444 17 130 0.0 1.6 0.00 0.00 0.00 45 1018.2
20260503181941 17 161 0.0 1.6 0.00 0.00 0.00 40 1018.3
20260503181438 16 178 6.4 9.7 0.00 0.00 0.00 40 1018.5
20260503180933 17 52 0.0 1.6 0.00 0.00 0.00 37 1018.4
20260503180432 16 50 0.0 1.6 0.00 0.00 0.00 43 1018.4
20260503175928 17 243 1.6 3.2 0.00 0.00 0.00 37 1018.2
20260503175427 16 80 6.4 9.7 0.00 0.00 0.00 40 1018.4
20260503174922 16 280 3.2 3.2 0.00 0.00 0.00 41 1018.4
20260503174421 16 217 1.6 1.6 0.00 0.00 0.00 39 1018.5
20260503173920 15 13 3.2 4.8 0.00 0.00 0.00 44 1018.6
20260503173417 15 79 1.6 3.2 0.00 0.00 0.00 44 1018.6
20260503172914 17 45 4.8 8.0 0.00 0.00 0.00 38 1018.9
20260503172411 17 172 0.0 1.6 0.00 0.00 0.00 35 1019.0
20260503171907 16 163 0.0 1.6 0.00 0.00 0.00 40 1018.9
20260503171404 15 153 3.2 3.2 0.00 0.00 0.00 41 1019.0
20260503170902 15 17 4.8 8.0 0.00 0.00 0.00 45 1019.1
20260503170358 15 46 1.6 3.2 0.00 0.00 0.00 47 1019.3
20260503150750 10 85 4.8 9.7 0.00 0.00 0.00 57 1020.3
20260503150246 10 79 6.4 8.0 0.00 0.00 0.00 61 1020.3
20260503140211 7 165 0.0 0.0 0.00 0.00 0.00 76 1020.2
20260503131140 5 24 0.0 0.0 0.00 0.00 0.00 88 1020.2
20260503130638 5 51 0.0 0.0 0.00 0.00 0.00 89 1020.2
20260503130135 5 50 0.0 0.0 0.00 0.00 0.00 91 1020.1
20260503110527 1 158 0.0 1.6 0.00 0.00 0.00 99 1019.0
20260503090414 1 157 0.0 0.0 0.00 0.00 0.00 99 1017.8
20260503081341 2 131 3.2 3.2 0.00 0.00 0.00 99 1017.4
20260503080838 2 160 0.0 0.0 0.00 0.00 0.00 99 1017.5
20260503080335 2 138 0.0 1.6 0.00 0.00 0.00 99 1017.4
20260503072805 2 143 0.0 0.0 0.00 0.00 0.00 99 1017.1
20260503072305 2 165 1.6 1.6 0.00 0.00 0.00 99 1017.1
20260503071758 2 87 0.0 0.0 0.00 0.00 0.00 99 1017.1
20260503071256 2 155 1.6 3.2 0.00 0.00 0.00 99 1016.8
20260503070752 2 160 0.0 0.0 0.00 0.00 0.00 99 1017.2
20260503070250 2 61 1.6 1.6 0.00 0.00 0.00 97 1017.2
20260503060209 3 176 4.8 4.8 0.00 0.00 0.00 94 1016.8
20260503054656 4 162 3.2 3.2 0.00 0.00 0.00 94 1016.7
20260503054153 4 166 3.2 3.2 0.00 0.00 0.00 94 1016.6
20260503053651 4 165 1.6 1.6 0.00 0.00 0.00 94 1017.1
20260503053150 4 166 0.0 0.0 0.00 0.00 0.00 93 1017.2
20260503052646 4 163 1.6 1.6 0.00 0.00 0.00 94 1017.3
20260503052142 4 163 1.6 1.6 0.00 0.00 0.00 93 1016.9
20260503051637 5 155 0.0 0.0 0.00 0.00 0.00 92 1017.2
20260503051135 5 150 0.0 0.0 0.00 0.00 0.00 91 1017.2
20260503050632 5 149 0.0 0.0 0.00 0.00 0.00 91 1017.1
20260503050128 5 149 0.0 0.0 0.00 0.00 0.00 92 1017.2
20260503045626 5 147 0.0 0.0 0.00 0.00 0.00 91 1017.1
20260503045123 5 147 0.0 1.6 0.00 0.00 0.00 91 1017.0
20260503044619 5 142 1.6 1.6 0.00 0.00 0.00 90 1016.9
20260503044117 5 161 0.0 0.0 0.00 0.00 0.00 90 1016.7
20260503043614 5 154 0.0 0.0 0.00 0.00 0.00 89 1016.8
20260503043110 5 153 1.6 1.6 0.00 0.00 0.00 89 1016.8
20260503042607 5 142 1.6 1.6 0.00 0.00 0.00 88 1016.8
20260503042103 5 149 0.0 0.0 0.00 0.00 0.00 86 1016.6
20260503041600 5 139 0.0 0.0 0.00 0.00 0.00 86 1016.8
20260503041058 5 135 1.6 1.6 0.00 0.00 0.00 87 1016.5
20260503040555 4 161 0.0 0.0 0.00 0.00 0.00 91 1016.6
20260503040052 4 165 0.0 1.6 0.00 0.00 0.00 91 1016.6